| time (UTC) | temp F | wind direction | speed MPH | gust MPH | rain 1hr in | rain 24hr in | rain mn in | humidity % | barometer mb |
| 20260510130216 | 56 | 269 | 1.0 | 3.0 | 0.00 | 0.39 | 0.00 | 94 | 1011.4 |
| 20260510125715 | 56 | 277 | 2.0 | 6.0 | 0.00 | 0.39 | 0.00 | 94 | 1011.4 |
| 20260510125215 | 56 | 235 | 1.0 | 6.0 | 0.00 | 0.39 | 0.00 | 94 | 1011.2 |
| 20260510124716 | 56 | 284 | 1.0 | 3.0 | 0.00 | 0.39 | 0.00 | 95 | 1011.1 |
| 20260510124209 | 55 | 227 | 1.0 | 3.0 | 0.00 | 0.39 | 0.00 | 95 | 1010.9 |
| 20260510123934 | 55 | 216 | 1.0 | 3.0 | 0.00 | 0.39 | 0.00 | 95 | 1010.8 |
| 20260510123158 | 54 | 207 | 1.0 | 3.0 | 0.00 | 0.39 | 0.00 | 95 | 1010.7 |
| 20260510122652 | 54 | 164 | 2.0 | 4.0 | 0.00 | 0.39 | 0.00 | 95 | 1010.7 |
| 20260510122145 | 54 | 223 | 1.0 | 4.0 | 0.00 | 0.39 | 0.00 | 96 | 1010.7 |
| 20260510121639 | 53 | 228 | 1.0 | 3.0 | 0.00 | 0.39 | 0.00 | 96 | 1010.7 |
| 20260510121405 | 53 | 239 | 1.0 | 3.0 | 0.00 | 0.39 | 0.00 | 96 | 1010.7 |
| 20260510120627 | 52 | 244 | 1.0 | 2.0 | 0.00 | 0.39 | 0.00 | 96 | 1010.7 |
| 20260510120353 | 51 | 247 | 0.0 | 2.0 | 0.00 | 0.39 | 0.00 | 96 | 1010.7 |
| 20260510115616 | 50 | 164 | 0.0 | 1.0 | 0.00 | 0.39 | 0.00 | 96 | 1010.7 |
| 20260510115110 | 50 | 164 | 0.0 | 1.0 | 0.00 | 0.39 | 0.00 | 96 | 1010.6 |
| 20260510114603 | 50 | 164 | 0.0 | 2.0 | 0.00 | 0.39 | 0.00 | 95 | 1010.4 |
| 20260510114057 | 50 | 164 | 1.0 | 2.0 | 0.00 | 0.39 | 0.00 | 95 | 1010.2 |
| 20260510113551 | 49 | 221 | 0.0 | 2.0 | 0.00 | 0.39 | 0.00 | 95 | 1010.2 |
| 20260510113316 | 49 | 221 | 0.0 | 2.0 | 0.00 | 0.39 | 0.00 | 95 | 1010.4 |
| 20260510112540 | 49 | 221 | 0.0 | 2.0 | 0.00 | 0.39 | 0.00 | 95 | 1010.4 |
| 20260510112034 | 49 | 221 | 0.0 | 1.0 | 0.00 | 0.39 | 0.00 | 95 | 1010.5 |
| 20260510111528 | 49 | 221 | 0.0 | 1.0 | 0.00 | 0.39 | 0.00 | 95 | 1010.5 |
| 20260510111021 | 49 | 221 | 1.0 | 1.0 | 0.00 | 0.39 | 0.00 | 95 | 1010.4 |
| 20260510110516 | 49 | 221 | 1.0 | 2.0 | 0.00 | 0.39 | 0.00 | 95 | 1010.3 |
| 20260510110009 | 49 | 221 | 0.0 | 2.0 | 0.00 | 0.39 | 0.00 | 95 | 1010.3 |
| 20260510105504 | 48 | 177 | 0.0 | 1.0 | 0.00 | 0.39 | 0.00 | 95 | 1010.4 |
| 20260510104958 | 48 | 177 | 0.0 | 2.0 | 0.00 | 0.39 | 0.00 | 95 | 1010.3 |
| 20260510104452 | 48 | 177 | 1.0 | 3.0 | 0.00 | 0.39 | 0.00 | 95 | 1010.2 |
| 20260510103945 | 48 | 177 | 1.0 | 3.0 | 0.00 | 0.39 | 0.00 | 95 | 1010.1 |
| 20260510103440 | 48 | 126 | 1.0 | 3.0 | 0.00 | 0.39 | 0.00 | 95 | 1010.0 |
| 20260510102933 | 48 | 157 | 1.0 | 3.0 | 0.00 | 0.39 | 0.00 | 95 | 1010.1 |
| 20260510102428 | 48 | 141 | 1.0 | 4.0 | 0.00 | 0.39 | 0.00 | 95 | 1010.0 |
| 20260510101921 | 48 | 169 | 1.0 | 4.0 | 0.00 | 0.39 | 0.00 | 95 | 1009.9 |
| 20260510101416 | 48 | 146 | 1.0 | 3.0 | 0.00 | 0.39 | 0.00 | 95 | 1009.9 |
| 20260510100912 | 48 | 157 | 1.0 | 5.0 | 0.00 | 0.39 | 0.00 | 95 | 1009.9 |
| 20260510100907 | 48 | 144 | 1.0 | 5.0 | 0.00 | 0.39 | 0.00 | 95 | 1010.0 |
| 20260510095857 | 48 | 150 | 1.0 | 4.0 | 0.00 | 0.39 | 0.00 | 95 | 1009.9 |
| 20260510095352 | 48 | 80 | 0.0 | 2.0 | 0.00 | 0.39 | 0.00 | 95 | 1009.8 |
| 20260510095118 | 48 | 80 | 1.0 | 2.0 | 0.00 | 0.39 | 0.00 | 95 | 1009.8 |
| 20260510094339 | 48 | 80 | 0.0 | 2.0 | 0.00 | 0.39 | 0.00 | 95 | 1009.9 |
| 20260510093836 | 48 | 80 | 0.0 | 1.0 | 0.00 | 0.39 | 0.00 | 95 | 1010.1 |
| 20260510093831 | 48 | 80 | 0.0 | 2.0 | 0.00 | 0.39 | 0.00 | 95 | 1010.0 |
| 20260510092821 | 48 | 80 | 1.0 | 2.0 | 0.00 | 0.39 | 0.00 | 95 | 1009.9 |
| 20260510092316 | 48 | 80 | 1.0 | 2.0 | 0.00 | 0.39 | 0.00 | 95 | 1010.0 |
| 20260510091810 | 48 | 80 | 1.0 | 2.0 | 0.00 | 0.39 | 0.00 | 95 | 1010.0 |
| 20260510091304 | 48 | 122 | 0.0 | 2.0 | 0.00 | 0.39 | 0.00 | 95 | 1009.9 |
| 20260510090803 | 48 | 348 | 0.0 | 2.0 | 0.00 | 0.39 | 0.00 | 95 | 1009.9 |
| 20260510090301 | 48 | 348 | 1.0 | 2.0 | 0.00 | 0.39 | 0.00 | 95 | 1009.9 |
| 20260510085758 | 48 | 348 | 0.0 | 1.0 | 0.00 | 0.39 | 0.00 | 95 | 1010.0 |
| 20260510085258 | 48 | 348 | 0.0 | 1.0 | 0.00 | 0.39 | 0.00 | 95 | 1010.1 |
| 20260510085029 | 48 | 348 | 0.0 | 2.0 | 0.00 | 0.39 | 0.00 | 95 | 1010.2 |
| 20260510084528 | 48 | 348 | 2.0 | 7.0 | 0.00 | 0.39 | 0.00 | 95 | 1010.3 |
| 20260510083756 | 48 | 347 | 3.0 | 7.0 | 0.00 | 0.39 | 0.00 | 95 | 1010.3 |
| 20260510083255 | 48 | 17 | 3.0 | 7.0 | 0.00 | 0.39 | 0.00 | 95 | 1010.4 |
| 20260510082754 | 48 | 32 | 3.0 | 8.0 | 0.00 | 0.39 | 0.00 | 95 | 1010.4 |
| 20260510082254 | 48 | 344 | 3.0 | 8.0 | 0.00 | 0.39 | 0.00 | 95 | 1010.3 |
| 20260510081756 | 48 | 27 | 4.0 | 12.0 | 0.00 | 0.39 | 0.00 | 95 | 1010.3 |
| 20260510081255 | 48 | 5 | 5.0 | 12.0 | 0.00 | 0.39 | 0.00 | 95 | 1010.4 |
| 20260510080755 | 48 | 342 | 5.0 | 11.0 | 0.00 | 0.39 | 0.00 | 95 | 1010.3 |
| 20260510080251 | 47 | 355 | 4.0 | 9.0 | 0.00 | 0.39 | 0.00 | 95 | 1010.1 |
| 20260510075751 | 47 | 355 | 5.0 | 15.0 | 0.00 | 0.39 | 0.00 | 95 | 1010.1 |
| 20260510075251 | 47 | 5 | 5.0 | 15.0 | 0.00 | 0.39 | 0.00 | 94 | 1009.9 |
| 20260510074750 | 47 | 355 | 1.0 | 9.0 | 0.00 | 0.39 | 0.00 | 94 | 1010.0 |
| 20260510074252 | 47 | 15 | 0.0 | 0.0 | 0.00 | 0.39 | 0.00 | 94 | 1009.4 |
| 20260510073750 | 47 | 15 | 0.0 | 0.0 | 0.00 | 0.39 | 0.00 | 94 | 1009.4 |
| 20260510073251 | 47 | 15 | 0.0 | 1.0 | 0.00 | 0.39 | 0.00 | 94 | 1009.5 |
| 20260510072752 | 47 | 15 | 0.0 | 1.0 | 0.00 | 0.39 | 0.00 | 94 | 1009.4 |
| 20260510072251 | 48 | 15 | 1.0 | 2.0 | 0.00 | 0.39 | 0.00 | 94 | 1009.4 |
| 20260510071751 | 48 | 15 | 1.0 | 3.0 | 0.00 | 0.39 | 0.00 | 94 | 1009.4 |
| 20260510071522 | 48 | 12 | 1.0 | 3.0 | 0.00 | 0.39 | 0.00 | 94 | 1009.4 |
| 20260510070750 | 48 | 339 | 1.0 | 3.0 | 0.00 | 0.39 | 0.00 | 94 | 1009.4 |
| 20260510070251 | 48 | 12 | 1.0 | 3.0 | 0.00 | 0.39 | 0.00 | 94 | 1009.5 |
| 20260510065748 | 47 | 30 | 1.0 | 3.0 | 0.00 | 0.39 | 0.00 | 94 | 1009.5 |
| 20260510065247 | 47 | 341 | 1.0 | 3.0 | 0.00 | 0.39 | 0.00 | 94 | 1009.5 |
| 20260510064746 | 47 | 337 | 2.0 | 3.0 | 0.00 | 0.39 | 0.00 | 94 | 1009.5 |
| 20260510064243 | 47 | 338 | 2.0 | 4.0 | 0.00 | 0.39 | 0.00 | 94 | 1009.7 |
| 20260510063742 | 47 | 346 | 2.0 | 4.0 | 0.00 | 0.39 | 0.00 | 94 | 1009.7 |
| 20260510063243 | 46 | 5 | 2.0 | 4.0 | 0.00 | 0.39 | 0.00 | 94 | 1009.7 |
| 20260510062740 | 46 | 348 | 2.0 | 5.0 | 0.00 | 0.39 | 0.00 | 94 | 1009.8 |
| 20260510062512 | 46 | 340 | 2.0 | 5.0 | 0.00 | 0.39 | 0.00 | 94 | 1009.8 |
| 20260510061741 | 45 | 303 | 1.0 | 3.0 | 0.00 | 0.39 | 0.00 | 94 | 1009.8 |
| 20260510061241 | 45 | 178 | 0.0 | 1.0 | 0.00 | 0.39 | 0.00 | 94 | 1009.7 |
| 20260510060736 | 45 | 178 | 0.0 | 0.0 | 0.00 | 0.39 | 0.00 | 94 | 1009.4 |
| 20260510060231 | 45 | 178 | 0.0 | 1.0 | 0.00 | 0.39 | 0.00 | 94 | 1009.4 |
| 20260510055724 | 45 | 178 | 1.0 | 2.0 | 0.00 | 0.39 | 0.00 | 93 | 1009.3 |
| 20260510055219 | 44 | 178 | 0.0 | 2.0 | 0.00 | 0.39 | 0.00 | 93 | 1009.4 |
| 20260510054713 | 44 | 178 | 0.0 | 1.0 | 0.00 | 0.39 | 0.00 | 93 | 1009.3 |
| 20260510054206 | 44 | 178 | 0.0 | 0.0 | 0.00 | 0.39 | 0.00 | 93 | 1009.2 |
| 20260510053700 | 44 | 178 | 0.0 | 0.0 | 0.00 | 0.39 | 0.00 | 93 | 1009.4 |
| 20260510053155 | 44 | 178 | 0.0 | 0.0 | 0.00 | 0.39 | 0.00 | 93 | 1009.4 |
| 20260510052648 | 44 | 178 | 0.0 | 0.0 | 0.00 | 0.39 | 0.00 | 93 | 1009.5 |
| 20260510052143 | 44 | 178 | 0.0 | 0.0 | 0.00 | 0.39 | 0.00 | 93 | 1009.3 |
| 20260510051636 | 44 | 178 | 0.0 | 1.0 | 0.00 | 0.39 | 0.00 | 93 | 1009.3 |
| 20260510051131 | 44 | 178 | 1.0 | 2.0 | 0.00 | 0.39 | 0.00 | 93 | 1009.4 |
| 20260510050629 | 45 | 178 | 1.0 | 2.0 | 0.00 | 0.39 | 0.00 | 93 | 1009.5 |
| 20260510050129 | 45 | 178 | 0.0 | 1.0 | 0.00 | 0.39 | 0.00 | 93 | 1009.5 |
| 20260510045629 | 45 | 178 | 0.0 | 1.0 | 0.00 | 0.39 | 0.00 | 93 | 1009.5 |
| 20260510045127 | 45 | 178 | 0.0 | 1.0 | 0.00 | 0.39 | 0.00 | 93 | 1009.7 |
| 20260510044627 | 45 | 178 | 0.0 | 1.0 | 0.00 | 0.39 | 0.00 | 93 | 1009.7 |
| 20260510044128 | 45 | 178 | 0.0 | 2.0 | 0.00 | 0.39 | 0.00 | 93 | 1009.6 |
| 20260510043627 | 45 | 178 | 0.0 | 2.0 | 0.00 | 0.39 | 0.00 | 93 | 1009.6 |
| 20260510043127 | 45 | 178 | 0.0 | 0.0 | 0.00 | 0.39 | 0.00 | 93 | 1009.6 |
| 20260510042629 | 45 | 178 | 0.0 | 0.0 | 0.00 | 0.39 | 0.00 | 93 | 1009.6 |
| 20260510042124 | 45 | 178 | 0.0 | 0.0 | 0.00 | 0.39 | 0.00 | 93 | 1009.7 |
| 20260510041623 | 45 | 178 | 0.0 | 0.0 | 0.00 | 0.39 | 0.00 | 93 | 1009.8 |
| 20260510041125 | 45 | 178 | 0.0 | 0.0 | 0.00 | 0.39 | 0.00 | 93 | 1009.7 |
| 20260510040623 | 45 | 178 | 0.0 | 0.0 | 0.00 | 0.39 | 0.00 | 93 | 1009.7 |
| 20260510040125 | 45 | 178 | 0.0 | 2.0 | 0.00 | 0.39 | 0.00 | 93 | 1009.6 |
| 20260510035623 | 45 | 178 | 0.0 | 2.0 | 0.00 | 0.39 | 0.39 | 92 | 1009.6 |
| 20260510035124 | 45 | 178 | 0.0 | 1.0 | 0.00 | 0.39 | 0.39 | 92 | 1009.5 |
| 20260510034623 | 45 | 178 | 0.0 | 0.0 | 0.00 | 0.39 | 0.39 | 92 | 1009.4 |
| 20260510034125 | 45 | 178 | 0.0 | 0.0 | 0.00 | 0.39 | 0.39 | 92 | 1009.5 |
| 20260510033854 | 45 | 178 | 0.0 | 0.0 | 0.00 | 0.39 | 0.39 | 92 | 1009.5 |
| 20260510033122 | 45 | 178 | 0.0 | 0.0 | 0.00 | 0.39 | 0.39 | 92 | 1009.4 |
| 20260510032622 | 45 | 178 | 0.0 | 0.0 | 0.00 | 0.39 | 0.39 | 92 | 1009.3 |
| 20260510032119 | 46 | 178 | 0.0 | 0.0 | 0.00 | 0.39 | 0.39 | 92 | 1009.3 |
| 20260510031617 | 46 | 178 | 0.0 | 0.0 | 0.00 | 0.39 | 0.39 | 92 | 1009.4 |
| 20260510031117 | 46 | 178 | 0.0 | 0.0 | 0.00 | 0.39 | 0.39 | 93 | 1009.3 |
| 20260510030621 | 46 | 178 | 0.0 | 0.0 | 0.00 | 0.39 | 0.39 | 92 | 1009.3 |
| 20260510030116 | 46 | 178 | 0.0 | 0.0 | 0.00 | 0.39 | 0.39 | 92 | 1009.3 |
| 20260510025614 | 46 | 178 | 0.0 | 0.0 | 0.00 | 0.39 | 0.39 | 93 | 1009.2 |
| 20260510025113 | 47 | 178 | 0.0 | 0.0 | 0.00 | 0.39 | 0.39 | 93 | 1009.2 |
| 20260510024614 | 47 | 178 | 0.0 | 0.0 | 0.00 | 0.39 | 0.39 | 93 | 1009.3 |
| 20260510024112 | 47 | 178 | 0.0 | 0.0 | 0.00 | 0.39 | 0.39 | 93 | 1009.2 |
| 20260510023844 | 47 | 178 | 0.0 | 1.0 | 0.00 | 0.39 | 0.39 | 92 | 1009.1 |
| 20260510023344 | 47 | 178 | 0.0 | 2.0 | 0.00 | 0.39 | 0.39 | 92 | 1009.3 |
| 20260510022841 | 47 | 178 | 0.0 | 2.0 | 0.00 | 0.39 | 0.39 | 92 | 1009.2 |
| 20260510022109 | 47 | 178 | 0.0 | 2.0 | 0.00 | 0.39 | 0.39 | 93 | 1009.2 |
| 20260510021610 | 47 | 178 | 0.0 | 0.0 | 0.00 | 0.39 | 0.39 | 93 | 1009.3 |
| 20260510021109 | 47 | 178 | 0.0 | 0.0 | 0.00 | 0.39 | 0.39 | 93 | 1009.3 |
| 20260510020601 | 47 | 178 | 0.0 | 0.0 | 0.00 | 0.39 | 0.39 | 92 | 1009.4 |
| 20260510020056 | 47 | 178 | 0.0 | 0.0 | 0.00 | 0.39 | 0.39 | 92 | 1009.4 |
| 20260510015549 | 47 | 178 | 0.0 | 0.0 | 0.00 | 0.39 | 0.39 | 92 | 1009.4 |
| 20260510015044 | 47 | 178 | 0.0 | 0.0 | 0.00 | 0.39 | 0.39 | 92 | 1009.3 |
| 20260510014537 | 47 | 178 | 0.0 | 0.0 | 0.00 | 0.39 | 0.39 | 92 | 1009.3 |
| 20260510014303 | 47 | 178 | 0.0 | 0.0 | 0.00 | 0.39 | 0.39 | 92 | 1009.2 |
| 20260510013526 | 48 | 178 | 0.0 | 0.0 | 0.00 | 0.39 | 0.39 | 92 | 1009.3 |
| 20260510013020 | 48 | 178 | 0.0 | 0.0 | 0.00 | 0.39 | 0.39 | 92 | 1009.2 |
| 20260510012514 | 48 | 178 | 0.0 | 0.0 | 0.00 | 0.39 | 0.39 | 92 | 1009.3 |
| 20260510012008 | 48 | 178 | 0.0 | 0.0 | 0.00 | 0.39 | 0.39 | 92 | 1009.3 |
| 20260510011502 | 48 | 178 | 0.0 | 0.0 | 0.00 | 0.39 | 0.39 | 93 | 1009.4 |
| 20260510010956 | 49 | 178 | 0.0 | 0.0 | 0.00 | 0.39 | 0.39 | 92 | 1009.2 |
| 20260510010449 | 49 | 178 | 0.0 | 0.0 | 0.00 | 0.39 | 0.39 | 92 | 1009.2 |
| 20260510005944 | 49 | 178 | 0.0 | 0.0 | 0.00 | 0.39 | 0.39 | 93 | 1009.1 |
| 20260510005710 | 49 | 178 | 0.0 | 0.0 | 0.00 | 0.39 | 0.39 | 92 | 1009.0 |
| 20260510005433 | 50 | 178 | 0.0 | 0.0 | 0.00 | 0.39 | 0.39 | 93 | 1008.8 |
| 20260510004426 | 50 | 178 | 0.0 | 1.0 | 0.00 | 0.39 | 0.39 | 93 | 1008.8 |
| 20260510003920 | 50 | 178 | 0.0 | 2.0 | 0.00 | 0.39 | 0.39 | 93 | 1008.7 |
| 20260510003413 | 51 | 178 | 0.0 | 2.0 | 0.00 | 0.39 | 0.39 | 93 | 1008.6 |
| 20260510002908 | 51 | 178 | 1.0 | 2.0 | 0.00 | 0.39 | 0.39 | 93 | 1008.5 |
| 20260510002401 | 51 | 178 | 1.0 | 2.0 | 0.00 | 0.39 | 0.39 | 93 | 1008.5 |
| 20260510001856 | 51 | 182 | 1.0 | 3.0 | 0.00 | 0.39 | 0.39 | 93 | 1008.5 |
| 20260510001851 | 52 | 182 | 2.0 | 4.0 | 0.00 | 0.39 | 0.39 | 93 | 1008.6 |
| 20260510000843 | 52 | 180 | 2.0 | 4.0 | 0.00 | 0.39 | 0.39 | 93 | 1008.7 |
| 20260510000337 | 52 | 202 | 2.0 | 4.0 | 0.00 | 0.39 | 0.39 | 93 | 1008.8 |
| 20260509235832 | 52 | 182 | 2.0 | 4.0 | 0.00 | 0.39 | 0.39 | 93 | 1008.8 |
| 20260509235325 | 52 | 196 | 1.0 | 4.0 | 0.00 | 0.39 | 0.39 | 94 | 1008.7 |
| 20260509234820 | 53 | 171 | 1.0 | 5.0 | 0.00 | 0.39 | 0.39 | 94 | 1008.8 |
| 20260509234314 | 53 | 172 | 1.0 | 5.0 | 0.00 | 0.39 | 0.39 | 94 | 1008.6 |
| 20260509233807 | 53 | 166 | 2.0 | 5.0 | 0.00 | 0.39 | 0.39 | 94 | 1008.5 |
| 20260509233302 | 53 | 143 | 2.0 | 5.0 | 0.00 | 0.39 | 0.39 | 94 | 1008.6 |
| 20260509232756 | 53 | 180 | 2.0 | 5.0 | 0.00 | 0.39 | 0.39 | 94 | 1008.6 |
| 20260509232751 | 53 | 155 | 1.0 | 4.0 | 0.00 | 0.39 | 0.39 | 94 | 1008.5 |
| 20260509232015 | 53 | 145 | 2.0 | 6.0 | 0.00 | 0.39 | 0.39 | 94 | 1008.4 |
| 20260509231237 | 53 | 149 | 2.0 | 6.0 | 0.00 | 0.39 | 0.39 | 94 | 1008.4 |
| 20260509230732 | 53 | 173 | 1.0 | 4.0 | 0.00 | 0.39 | 0.39 | 94 | 1008.4 |
| 20260509230225 | 53 | 175 | 1.0 | 4.0 | 0.00 | 0.39 | 0.39 | 94 | 1008.4 |
| 20260509225719 | 53 | 187 | 1.0 | 3.0 | 0.00 | 0.39 | 0.39 | 94 | 1008.5 |
| 20260509225217 | 53 | 107 | 2.0 | 7.0 | 0.00 | 0.39 | 0.39 | 94 | 1008.5 |
| 20260509224716 | 53 | 146 | 3.0 | 8.0 | 0.00 | 0.39 | 0.39 | 94 | 1008.5 |
| 20260509224215 | 53 | 195 | 4.0 | 8.0 | 0.00 | 0.39 | 0.39 | 94 | 1008.4 |
| 20260509223716 | 53 | 175 | 4.0 | 9.0 | 0.00 | 0.39 | 0.39 | 94 | 1008.5 |
| 20260509223444 | 53 | 185 | 4.0 | 9.0 | 0.00 | 0.39 | 0.39 | 93 | 1008.6 |
| 20260509222709 | 53 | 154 | 3.0 | 7.0 | 0.00 | 0.39 | 0.39 | 93 | 1008.7 |
| 20260509222209 | 53 | 112 | 2.0 | 6.0 | 0.00 | 0.39 | 0.39 | 94 | 1008.7 |
| 20260509221708 | 53 | 171 | 3.0 | 6.0 | 0.00 | 0.39 | 0.39 | 94 | 1008.7 |
| 20260509221206 | 53 | 119 | 3.0 | 6.0 | 0.01 | 0.39 | 0.39 | 93 | 1008.8 |
| 20260509220707 | 53 | 178 | 2.0 | 6.0 | 0.02 | 0.39 | 0.39 | 94 | 1008.7 |
| 20260509220207 | 53 | 180 | 2.0 | 6.0 | 0.03 | 0.39 | 0.39 | 94 | 1008.6 |
| 20260509215939 | 53 | 169 | 3.0 | 6.0 | 0.04 | 0.39 | 0.39 | 93 | 1008.6 |
| 20260509215206 | 53 | 154 | 3.0 | 6.0 | 0.05 | 0.39 | 0.39 | 93 | 1008.8 |
| 20260509214708 | 54 | 210 | 3.0 | 8.0 | 0.06 | 0.39 | 0.39 | 94 | 1008.8 |
| 20260509214433 | 54 | 93 | 2.0 | 8.0 | 0.07 | 0.39 | 0.39 | 93 | 1008.7 |
| 20260509213703 | 54 | 160 | 1.0 | 4.0 | 0.08 | 0.39 | 0.39 | 94 | 1008.6 |
| 20260509213203 | 53 | 328 | 0.0 | 2.0 | 0.08 | 0.39 | 0.39 | 94 | 1008.6 |
| 20260509212703 | 53 | 328 | 0.0 | 2.0 | 0.09 | 0.39 | 0.39 | 94 | 1008.6 |
| 20260509212434 | 53 | 328 | 0.0 | 2.0 | 0.10 | 0.39 | 0.39 | 94 | 1008.7 |
| 20260509211703 | 52 | 328 | 1.0 | 3.0 | 0.10 | 0.39 | 0.39 | 94 | 1008.7 |
| 20260509211202 | 52 | 328 | 2.0 | 7.0 | 0.10 | 0.38 | 0.38 | 94 | 1008.5 |
| 20260509210704 | 52 | 327 | 2.0 | 7.0 | 0.11 | 0.37 | 0.37 | 94 | 1008.5 |
| 20260509210203 | 52 | 313 | 2.0 | 6.0 | 0.11 | 0.36 | 0.36 | 94 | 1008.6 |
| 20260509205659 | 52 | 313 | 1.0 | 3.0 | 0.12 | 0.35 | 0.35 | 94 | 1008.7 |
| 20260509205158 | 52 | 266 | 1.0 | 3.0 | 0.11 | 0.34 | 0.34 | 94 | 1008.8 |
| 20260509204656 | 52 | 293 | 2.0 | 7.0 | 0.11 | 0.33 | 0.33 | 94 | 1008.8 |
| 20260509204157 | 52 | 288 | 2.0 | 7.0 | 0.11 | 0.32 | 0.32 | 94 | 1008.7 |
| 20260509203655 | 52 | 290 | 2.0 | 4.0 | 0.11 | 0.31 | 0.31 | 94 | 1008.7 |
| 20260509203152 | 52 | 338 | 1.0 | 4.0 | 0.11 | 0.31 | 0.31 | 93 | 1008.6 |
| 20260509202924 | 52 | 344 | 2.0 | 8.0 | 0.11 | 0.30 | 0.30 | 94 | 1008.7 |
| 20260509202153 | 52 | 320 | 2.0 | 8.0 | 0.11 | 0.29 | 0.29 | 94 | 1008.7 |
| 20260509201923 | 52 | 341 | 2.0 | 7.0 | 0.12 | 0.29 | 0.29 | 93 | 1008.8 |
| 20260509201153 | 52 | 301 | 2.0 | 7.0 | 0.13 | 0.28 | 0.28 | 93 | 1008.8 |
| 20260509200655 | 52 | 316 | 3.0 | 8.0 | 0.12 | 0.26 | 0.26 | 93 | 1008.9 |
| 20260509200154 | 52 | 315 | 4.0 | 12.0 | 0.12 | 0.25 | 0.25 | 93 | 1008.9 |
| 20260509195652 | 52 | 289 | 5.0 | 12.0 | 0.11 | 0.23 | 0.24 | 93 | 1009.1 |
| 20260509195150 | 52 | 329 | 4.0 | 10.0 | 0.13 | 0.23 | 0.23 | 93 | 1009.1 |
| 20260509194651 | 52 | 319 | 4.0 | 10.0 | 0.13 | 0.22 | 0.22 | 93 | 1009.3 |
| 20260509194145 | 52 | 333 | 3.0 | 10.0 | 0.13 | 0.21 | 0.21 | 93 | 1009.4 |
| 20260509193639 | 53 | 295 | 3.0 | 10.0 | 0.13 | 0.20 | 0.20 | 93 | 1009.5 |
| 20260509193132 | 53 | 281 | 3.0 | 11.0 | 0.14 | 0.20 | 0.20 | 93 | 1009.6 |
| 20260509192626 | 53 | 299 | 2.0 | 11.0 | 0.13 | 0.19 | 0.19 | 93 | 1009.4 |
| 20260509192121 | 53 | 298 | 3.0 | 8.0 | 0.12 | 0.18 | 0.18 | 93 | 1009.5 |
| 20260509191614 | 53 | 355 | 3.0 | 14.0 | 0.12 | 0.17 | 0.17 | 93 | 1009.5 |
| 20260509191109 | 53 | 355 | 3.0 | 14.0 | 0.10 | 0.15 | 0.15 | 93 | 1009.5 |
| 20260509190602 | 53 | 294 | 4.0 | 9.0 | 0.10 | 0.14 | 0.14 | 93 | 1009.5 |
| 20260509190057 | 53 | 321 | 4.0 | 9.0 | 0.10 | 0.13 | 0.13 | 93 | 1009.7 |
| 20260509185551 | 53 | 305 | 3.0 | 8.0 | 0.09 | 0.11 | 0.12 | 93 | 1009.6 |
| 20260509185045 | 53 | 274 | 3.0 | 8.0 | 0.09 | 0.10 | 0.10 | 92 | 1009.7 |
| 20260509184809 | 53 | 272 | 3.0 | 8.0 | 0.09 | 0.09 | 0.09 | 92 | 1009.7 |
| 20260509184033 | 53 | 286 | 2.0 | 6.0 | 0.08 | 0.08 | 0.08 | 92 | 1009.7 |
| 20260509183527 | 53 | 275 | 2.0 | 5.0 | 0.07 | 0.07 | 0.07 | 92 | 1009.5 |
| 20260509183020 | 53 | 311 | 2.0 | 6.0 | 0.06 | 0.06 | 0.06 | 92 | 1009.3 |
| 20260509182515 | 53 | 327 | 3.0 | 7.0 | 0.06 | 0.06 | 0.06 | 92 | 1009.3 |
| 20260509182009 | 53 | 311 | 3.0 | 10.0 | 0.06 | 0.06 | 0.06 | 91 | 1009.4 |
| 20260509181503 | 53 | 332 | 3.0 | 10.0 | 0.05 | 0.05 | 0.05 | 91 | 1009.7 |
| 20260509180956 | 54 | 280 | 3.0 | 10.0 | 0.05 | 0.05 | 0.05 | 91 | 1009.8 |
| 20260509180721 | 54 | 355 | 3.0 | 9.0 | 0.04 | 0.04 | 0.04 | 90 | 1009.7 |
| 20260509175945 | 54 | 302 | 3.0 | 9.0 | 0.03 | 0.03 | 0.03 | 89 | 1010.0 |
| 20260509175439 | 55 | 304 | 3.0 | 9.0 | 0.02 | 0.02 | 0.02 | 88 | 1010.2 |
| 20260509174933 | 55 | 264 | 3.0 | 12.0 | 0.01 | 0.01 | 0.01 | 88 | 1010.2 |
| 20260509174427 | 56 | 314 | 3.0 | 12.0 | 0.00 | 0.00 | 0.00 | 87 | 1010.2 |
| 20260509173921 | 56 | 284 | 4.0 | 12.0 | 0.00 | 0.00 | 0.00 | 85 | 1010.2 |
| 20260509173646 | 57 | 231 | 5.0 | 12.0 | 0.00 | 0.00 | 0.00 | 82 | 1010.2 |
| 20260509173141 | 57 | 273 | 4.0 | 12.0 | 0.00 | 0.00 | 0.00 | 80 | 1010.1 |
| 20260509172402 | 58 | 248 | 4.0 | 11.0 | 0.00 | 0.00 | 0.00 | 81 | 1010.0 |
| 20260509171856 | 58 | 262 | 4.0 | 12.0 | 0.00 | 0.00 | 0.00 | 81 | 1009.9 |
| 20260509171623 | 59 | 288 | 4.0 | 12.0 | 0.00 | 0.00 | 0.00 | 80 | 1009.8 |
| 20260509170844 | 58 | 281 | 3.0 | 12.0 | 0.00 | 0.00 | 0.00 | 85 | 1009.7 |
| 20260509170609 | 58 | 281 | 2.0 | 9.0 | 0.00 | 0.00 | 0.00 | 84 | 1009.7 |
| 20260509165327 | 59 | 275 | 3.0 | 11.0 | 0.00 | 0.00 | 0.00 | 78 | 1009.8 |
| 20260509164820 | 60 | 254 | 3.0 | 11.0 | 0.00 | 0.00 | 0.00 | 76 | 1009.8 |
| 20260509164314 | 59 | 273 | 3.0 | 11.0 | 0.00 | 0.00 | 0.00 | 76 | 1009.8 |
| 20260509163810 | 59 | 283 | 2.0 | 8.0 | 0.00 | 0.00 | 0.00 | 78 | 1009.8 |
| 20260509163310 | 59 | 233 | 4.0 | 11.0 | 0.00 | 0.00 | 0.00 | 75 | 1009.8 |
| 20260509162809 | 59 | 227 | 4.0 | 11.0 | 0.00 | 0.00 | 0.00 | 73 | 1009.8 |
| 20260509162310 | 60 | 205 | 4.0 | 11.0 | 0.00 | 0.00 | 0.00 | 74 | 1010.0 |
| 20260509162042 | 59 | 211 | 3.0 | 10.0 | 0.00 | 0.00 | 0.00 | 74 | 1010.1 |
| 20260509161313 | 60 | 213 | 3.0 | 10.0 | 0.00 | 0.00 | 0.00 | 75 | 1010.1 |
| 20260509161309 | 60 | 217 | 3.0 | 9.0 | 0.00 | 0.00 | 0.00 | 76 | 1010.0 |
| 20260509160306 | 60 | 240 | 3.0 | 10.0 | 0.00 | 0.00 | 0.00 | 73 | 1010.2 |
| 20260509155805 | 60 | 246 | 2.0 | 8.0 | 0.00 | 0.00 | 0.00 | 75 | 1010.1 |
| 20260509155536 | 60 | 288 | 3.0 | 8.0 | 0.00 | 0.00 | 0.00 | 75 | 1009.9 |
| 20260509154807 | 60 | 263 | 3.0 | 10.0 | 0.00 | 0.00 | 0.00 | 77 | 1010.2 |
| 20260509154536 | 59 | 283 | 3.0 | 12.0 | 0.00 | 0.00 | 0.00 | 78 | 1010.3 |
| 20260509154037 | 59 | 13 | 4.0 | 14.0 | 0.00 | 0.00 | 0.00 | 77 | 1010.5 |
| 20260509153305 | 59 | 245 | 4.0 | 14.0 | 0.00 | 0.00 | 0.00 | 77 | 1010.2 |
| 20260509152804 | 59 | 240 | 4.0 | 14.0 | 0.00 | 0.00 | 0.00 | 76 | 1010.4 |
| 20260509152306 | 60 | 215 | 4.0 | 14.0 | 0.00 | 0.00 | 0.00 | 73 | 1010.4 |
| 20260509151803 | 60 | 220 | 4.0 | 10.0 | 0.00 | 0.00 | 0.00 | 77 | 1010.4 |
| 20260509151538 | 60 | 316 | 4.0 | 10.0 | 0.00 | 0.00 | 0.00 | 78 | 1010.4 |
| 20260509150801 | 59 | 239 | 3.0 | 8.0 | 0.00 | 0.00 | 0.00 | 80 | 1010.3 |
| 20260509150259 | 60 | 190 | 3.0 | 10.0 | 0.00 | 0.00 | 0.00 | 79 | 1010.3 |
| 20260509145800 | 59 | 250 | 4.0 | 10.0 | 0.00 | 0.00 | 0.00 | 79 | 1010.4 |
| 20260509145301 | 60 | 256 | 4.0 | 10.0 | 0.00 | 0.00 | 0.00 | 78 | 1010.4 |
| 20260509144800 | 59 | 261 | 4.0 | 12.0 | 0.00 | 0.00 | 0.00 | 81 | 1010.5 |
| 20260509144300 | 58 | 203 | 4.0 | 12.0 | 0.00 | 0.00 | 0.00 | 81 | 1010.5 |
| 20260509143801 | 58 | 238 | 4.0 | 11.0 | 0.00 | 0.00 | 0.00 | 82 | 1010.3 |
| 20260509143304 | 58 | 300 | 3.0 | 9.0 | 0.00 | 0.00 | 0.00 | 84 | 1010.2 |
| 20260509143259 | 58 | 223 | 2.0 | 7.0 | 0.00 | 0.00 | 0.00 | 81 | 1010.4 |
| 20260509142256 | 57 | 219 | 5.0 | 11.0 | 0.00 | 0.00 | 0.00 | 82 | 1010.5 |
| 20260509141755 | 57 | 269 | 5.0 | 11.0 | 0.00 | 0.00 | 0.00 | 82 | 1010.5 |
| 20260509141255 | 57 | 219 | 4.0 | 10.0 | 0.00 | 0.00 | 0.00 | 83 | 1010.3 |
| 20260509140756 | 56 | 194 | 3.0 | 12.0 | 0.00 | 0.00 | 0.00 | 84 | 1010.1 |
| 20260509140255 | 56 | 314 | 3.0 | 12.0 | 0.00 | 0.00 | 0.00 | 83 | 1010.1 |
| 20260509135755 | 56 | 218 | 4.0 | 8.0 | 0.00 | 0.00 | 0.00 | 82 | 1010.1 |
| 20260509135256 | 56 | 203 | 3.0 | 9.0 | 0.00 | 0.00 | 0.00 | 80 | 1010.2 |
| 20260509134756 | 57 | 220 | 2.0 | 9.0 | 0.00 | 0.00 | 0.00 | 84 | 1010.2 |
| 20260509134256 | 57 | 211 | 2.0 | 7.0 | 0.00 | 0.00 | 0.00 | 83 | 1010.2 |
| 20260509133749 | 56 | 205 | 2.0 | 6.0 | 0.00 | 0.00 | 0.00 | 84 | 1010.2 |
| 20260509133244 | 56 | 225 | 1.0 | 6.0 | 0.00 | 0.00 | 0.00 | 86 | 1010.3 |
| 20260509132738 | 54 | 306 | 2.0 | 4.0 | 0.00 | 0.00 | 0.00 | 87 | 1010.2 |
| 20260509132231 | 53 | 224 | 2.0 | 5.0 | 0.00 | 0.00 | 0.00 | 86 | 1010.1 |
| 20260509131726 | 53 | 216 | 2.0 | 5.0 | 0.00 | 0.00 | 0.00 | 86 | 1010.3 |
| 20260509131452 | 53 | 131 | 2.0 | 4.0 | 0.00 | 0.00 | 0.00 | 86 | 1010.2 |
| 20260509130714 | 53 | 184 | 1.0 | 5.0 | 0.00 | 0.00 | 0.00 | 85 | 1010.3 |